DW6277 Weather Reports


Display with metric or nautical units.
time (UTC)temp
F
wind
direction
speed
MPH
gust
MPH
rain 1hr
in
rain 24hr
in
rain mn
in
humidity
%
barometer
mb
20260508170055 53 337 1.0 3.0 0.00 0.00 0.00 80 1021.3
20260508165114 53 317 0.0 2.0 0.00 0.00 0.00 79 1021.2
20260508164128 53 334 1.0 2.0 0.00 0.00 0.00 79 1021.1
20260508163107 53 326 0.0 2.0 0.00 0.00 0.00 79 1021.2
20260508162036 53 311 1.0 2.0 0.00 0.00 0.00 79 1021.2
20260508161008 53 307 0.0 1.0 0.00 0.00 0.00 79 1021.3
20260508154858 53 315 1.0 3.0 0.00 0.00 0.00 79 1021.3
20260508153828 53 324 1.0 4.0 0.00 0.00 0.00 78 1021.3
20260508152806 53 319 2.0 4.0 0.00 0.00 0.00 78 1021.3
20260508151813 53 314 0.0 2.0 0.00 0.00 0.00 78 1021.2
20260508150802 54 326 0.0 0.0 0.00 0.00 0.00 77 1021.3
20260508145732 54 326 0.0 0.0 0.00 0.00 0.00 77 1021.3
20260508144728 54 326 0.0 0.0 0.00 0.00 0.00 76 1021.2
20260508143708 55 324 0.0 0.0 0.00 0.00 0.00 75 1021.2
20260508141538 55 325 1.0 3.0 0.00 0.00 0.00 74 1021.0
20260508140547 56 309 1.0 4.0 0.00 0.00 0.00 74 1020.9
20260508135533 56 315 1.0 4.0 0.00 0.00 0.00 73 1020.8
20260508134550 56 331 1.0 3.0 0.00 0.00 0.00 72 1020.8
20260508133537 57 333 0.0 2.0 0.00 0.00 0.00 71 1020.8
20260508132525 58 335 1.0 3.0 0.00 0.00 0.00 70 1020.9
20260508131505 58 340 1.0 5.0 0.00 0.00 0.00 69 1020.7
20260508130502 59 359 1.0 5.0 0.00 0.00 0.00 68 1020.8
20260508125519 59 300 1.0 5.0 0.00 0.00 0.00 68 1020.7
20260508122255 59 325 2.0 8.0 0.00 0.00 0.00 67 1020.6
20260508121223 59 224 2.0 10.0 0.00 0.00 0.00 66 1020.7
20260508120156 59 238 2.0 10.0 0.00 0.00 0.00 66 1020.6
20260508115141 60 302 2.0 7.0 0.00 0.00 0.00 66 1020.6
20260508114121 60 250 2.0 9.0 0.00 0.00 0.00 65 1020.5
20260508112020 61 275 2.0 9.0 0.00 0.00 0.00 64 1020.4
20260508111007 61 232 3.0 9.0 0.00 0.00 0.00 63 1020.5
20260508105940 61 250 2.0 7.0 0.00 0.00 0.00 63 1020.5
20260508104931 62 269 3.0 14.0 0.00 0.00 0.00 62 1020.4
20260508103938 62 236 4.0 14.0 0.00 0.00 0.00 62 1020.2
20260508102920 62 238 5.0 11.0 0.00 0.00 0.00 61 1020.1
20260508101935 62 207 4.0 11.0 0.00 0.00 0.00 61 1020.0
20260508100935 62 276 3.0 11.0 0.00 0.00 0.00 60 1019.9
20260508095941 63 204 4.0 11.0 0.00 0.00 0.00 59 1019.8
20260508094952 63 229 4.0 12.0 0.00 0.00 0.00 59 1019.7
20260508092801 64 293 5.0 12.0 0.00 0.00 0.00 58 1019.3
20260508091746 64 241 4.0 9.0 0.00 0.00 0.00 57 1019.1
20260508090759 64 226 4.0 9.0 0.00 0.00 0.00 57 1019.1
20260508085746 65 243 4.0 9.0 0.00 0.00 0.00 56 1018.9
20260508084752 64 248 3.0 8.0 0.00 0.00 0.00 57 1018.8
20260508083738 65 245 0.0 5.0 0.00 0.00 0.00 56 1018.5
20260508081641 66 262 2.0 8.0 0.00 0.00 0.00 55 1018.1
20260508080609 66 219 2.0 5.0 0.00 0.00 0.00 54 1017.9
20260508075611 66 243 2.0 6.0 0.00 0.00 0.00 54 1017.7
20260508074609 66 205 2.0 6.0 0.00 0.00 0.00 54 1017.5
20260508073558 66 230 2.0 8.0 0.00 0.00 0.00 52 1017.3
20260508072553 67 250 3.0 9.0 0.00 0.00 0.00 52 1017.0
20260508070448 68 256 2.0 7.0 0.00 0.00 0.00 51 1016.6
20260508064326 69 217 2.0 9.0 0.00 0.00 0.00 49 1016.2
20260508063333 69 229 3.0 9.0 0.00 0.00 0.00 47 1016.0
20260508062311 70 263 2.0 9.0 0.00 0.00 0.00 46 1015.8
20260508061313 71 264 3.0 10.0 0.00 0.00 0.00 45 1015.6
20260508055207 73 202 2.0 8.0 0.00 0.00 0.00 44 1015.4
20260508054157 72 231 2.0 10.0 0.00 0.00 0.00 43 1015.4
20260508053219 73 192 3.0 10.0 0.00 0.00 0.00 41 1015.3
20260508052226 73 285 3.0 9.0 0.00 0.00 0.00 42 1015.2
20260508050034 74 213 4.0 9.0 0.00 0.00 0.00 40 1015.1
20260508045018 74 203 3.0 8.0 0.00 0.00 0.00 42 1015.0
20260508044029 74 241 2.0 11.0 0.00 0.00 0.00 42 1014.9
20260508043034 73 180 4.0 11.0 0.00 0.00 0.00 42 1015.0
20260508042049 73 227 2.0 12.0 0.00 0.00 0.00 43 1015.0
20260508041027 72 295 3.0 12.0 0.00 0.00 0.00 46 1015.0
20260508040047 72 309 2.0 8.0 0.00 0.00 0.00 47 1015.2
20260508035024 72 263 2.0 9.0 0.00 0.00 0.00 46 1015.2
20260508034028 71 8 3.0 12.0 0.00 0.00 0.00 47 1015.3
20260508033032 70 316 4.0 12.0 0.00 0.00 0.00 49 1015.4
20260508030933 69 307 4.0 12.0 0.00 0.00 0.00 49 1015.6
20260508025943 69 274 5.0 12.0 0.00 0.00 0.00 49 1015.6
20260508025001 69 262 5.0 11.0 0.00 0.00 0.00 49 1015.8
20260508023950 69 257 3.0 11.0 0.00 0.00 0.00 49 1015.8
20260508023009 69 299 4.0 8.0 0.00 0.00 0.00 49 1016.0
20260508022012 69 338 4.0 14.0 0.00 0.00 0.00 50 1016.1
20260508021010 68 303 4.0 14.0 0.00 0.00 0.00 50 1016.4
20260508020024 67 330 3.0 13.0 0.00 0.00 0.00 52 1016.6
20260508013827 65 174 4.0 12.0 0.00 0.00 0.00 53 1017.1
20260508010508 63 323 4.0 16.0 0.00 0.00 0.00 56 1017.5
20260508004334 62 349 6.0 15.0 0.00 0.00 0.00 58 1017.6
20260508003305 61 298 6.0 15.0 0.00 0.00 0.00 58 1017.7
20260508001111 59 285 6.0 18.0 0.00 0.00 0.00 59 1017.8
20260508000041 59 314 5.0 18.0 0.00 0.00 0.00 60 1018.0
20260507235050 58 349 6.0 16.0 0.00 0.00 0.00 61 1018.2
20260507234105 58 314 6.0 16.0 0.00 0.00 0.00 61 1018.1
20260507233047 57 332 7.0 16.0 0.00 0.00 0.00 62 1018.0
20260507232047 56 324 8.0 15.0 0.00 0.00 0.00 62 1018.0
20260507231108 56 278 7.0 14.0 0.00 0.00 0.00 63 1018.3
20260507230125 55 241 6.0 16.0 0.00 0.00 0.00 63 1018.4
20260507222844 53 304 7.0 16.0 0.00 0.00 0.00 65 1018.3
20260507221829 53 296 6.0 16.0 0.00 0.00 0.00 65 1018.4
20260507220848 53 342 5.0 14.0 0.00 0.00 0.00 65 1018.4
20260507215857 52 326 6.0 13.0 0.00 0.00 0.00 66 1018.2
20260507214847 52 308 5.0 11.0 0.00 0.00 0.00 66 1018.1
20260507212742 50 285 6.0 13.0 0.00 0.00 0.00 68 1018.0
20260507211754 50 311 5.0 13.0 0.00 0.00 0.00 69 1018.1
20260507210724 49 300 5.0 12.0 0.00 0.00 0.00 69 1018.1
20260507205726 49 351 5.0 12.0 0.00 0.00 0.00 69 1018.2
20260507203630 49 266 5.0 15.0 0.00 0.00 0.00 70 1018.2
20260507202638 49 317 5.0 13.0 0.00 0.00 0.00 70 1018.1
20260507201623 48 312 5.0 11.0 0.00 0.00 0.00 70 1018.2
20260507200553 48 8 5.0 12.0 0.00 0.00 0.00 69 1018.1
20260507195608 48 273 4.0 10.0 0.00 0.00 0.00 69 1018.1
20260507194545 48 313 4.0 11.0 0.00 0.00 0.00 69 1018.0
20260507193556 48 319 5.0 11.0 0.00 0.00 0.00 69 1017.9
20260507192526 48 318 4.0 9.0 0.00 0.00 0.00 69 1017.8
20260507191536 48 309 4.0 9.0 0.00 0.00 0.00 69 1017.8
20260507190524 48 311 4.0 9.0 0.00 0.00 0.00 68 1017.8
20260507185508 48 295 3.0 9.0 0.00 0.00 0.00 68 1017.8
20260507184527 48 309 4.0 8.0 0.00 0.00 0.00 68 1017.8
20260507183529 48 313 4.0 10.0 0.00 0.00 0.00 67 1017.8
20260507182501 49 336 4.0 10.0 0.00 0.00 0.00 66 1017.8
20260507181453 49 288 4.0 9.0 0.00 0.00 0.00 66 1017.8
20260507180431 49 302 4.0 9.0 0.00 0.00 0.00 65 1017.9
20260507175359 49 316 3.0 9.0 0.00 0.00 0.00 65 1017.8
20260507174411 49 285 3.0 7.0 0.00 0.00 0.00 65 1017.8
20260507173357 50 323 3.0 7.0 0.00 0.00 0.00 64 1017.8
20260507172345 50 308 3.0 9.0 0.00 0.00 0.00 62 1017.9
20260507171400 51 323 3.0 9.0 0.00 0.00 0.00 62 1018.0
20260507170354 51 314 4.0 8.0 0.00 0.00 0.00 61 1018.1